Probability
0 0 0 0 0 0 0 0 0 6 29 39 42 58 74 81 87 81 71 74 71 65 65 61 58 48 42 45 55 52 48 55 45 35 23 16 10 6 3 3 3 0 3 3
0 0 0 0 0 0 0 0 0 10 32 26 48 52 68 68 74 71 71 65 61 65 52 45 48 42 35 39 42 35 52 39 35 26 19 13 6 3 3 3 3 0 0 0
0 0 0 0 0 0 0 0 0 3 23 23 26 35 48 65 55 55 55 45 39 39 42 42 45 39 35 35 39 16 35 35 32 19 3 3 3 3 0 0 0 0 0 0
0 0 0 0 0 0 0 0 0 0 13 6 6 0 29 35 45 42 42 45 35 29 32 29 35 39 32 35 32 26 32 39 29 16 3 3 3 6 3 0 0 0 0 0
0 0 0 0 0 0 0 0 0 0 0 0 3 0 3 32 32 32 39 35 23 26 26 29 29 42 42 29 29 35 48 48 32 23 13 16 6 3 0 0 0 0 0 0
0 0 0 0 0 0 0 0 0 0 3 0 0 0 0 6 10 16 26 29 26 29 23 32 35 45 52 35 35 35 45 48 35 26 16 16 10 6 3 3 0 0 0 0
0 0 0 0 0 0 0 0 0 0 0 0 0 0 0 0 0 6 19 23 35 35 39 45 52 48 52 48 45 42 45 39 32 23 16 6 6 6 6 0 0 0 0 0
0 0 0 0 0 0 0 0 0 0 0 0 3 0 0 0 0 0 6 13 16 23 26 39 45 55 65 52 48 29 23 23 13 6 3 0 0 0 0 0 0 0 0 0
0 0 0 0 0 0 0 0 0 0 0 0 0 0 0 0 0 0 0 0 3 10 10 10 16 23 26 23 23 13 13 6 3 3 0 0 0 0 0 0 0 0 0 0
0 0 0 0 0 0 0 0 0 0 0 0 0 0 0 0 0 3 0 0 0 3 6 6 10 16 13 13 10 3 3 3 3 0 0 0 0 0 0 0 0 0 0 0
0 0 0 0 0 0 0 0 0 0 0 0 0 0 0 0 0 0 0 0 0 0 0 6 6 6 6 0 3 3 3 3 3 0 0 0 0 0 0 0 0 0 0 0
0 0 0 0 0 0 0 0 0 0 0 0 0 0 0 0 0 0 0 0 0 0 0 6 6 0 0 0 0 0 0 3 0 0 0 0 0 0 0 0 0 0 0 0
0 0 0 0 0 0 0 0 0 0 0 0 0 0 0 0 0 0 0 0 0 0 0 0 0 0 0 0 0 0 0 0 0 0 0 0 0 0 0 0 0 0 0 0
0 0 0 0 0 0 0 0 0 0 0 0 0 0 0 0 0 0 0 0 0 0 0 0 0 0 0 0 0 0 0 0 0 0 0 0 0 0 0 0 0 0 0 0
0 0 0 0 0 0 0 0 0 0 0 0 0 0 0 0 0 0 0 0 0 0 0 0 0 0 0 0 0 0 0 0 0 0 0 0 0 0 0 0 0 0 0 0
0 0 0 0 0 0 0 0 0 0 0 0 0 0 0 0 0 0 0 0 0 0 0 0 0 0 0 0 0 0 0 0 0 0 0 0 0 0 0 0 0 0 0 0
0 0 0 0 0 0 0 0 0 0 0 0 0 0 0 0 0 0 0 0 0 0 0 0 0 0 0 0 0 0 0 0 0 0 0 0 0 0 0 0 0 0 0 0
0 0 0 0 0 0 0 0 0 0 0 0 0 0 0 0 0 0 0 0 0 0 0 0 0 0 0 0 0 0 0 0 0 0 0 0 0 0 0 0 0 0 0 0
0 0 0 0 0 0 0 0 0 0 0 0 0 0 0 0 0 0 0 0 0 0 0 0 0 0 0 0 0 0 0 0 0 0 0 0 0 0 0 0 0 0 0 0
0 3 0 0 0 0 0 0 0 0 0 0 0 0 0 0 0 0 0 0 0 0 0 0 0 0 0 0 0 0 0 0 0 0 0 0 0 0 0 0 0 0 0 0
0 6 3 0 0 0 0 0 0 0 0 0 0 0 0 0 0 0 0 0 0 0 0 0 0 0 0 0 0 0 0 0 0 0 0 0 0 0 0 0 0 0 0 0
0 0 0 0 0 0 0 0 0 0 6 0 0 0 0 0 0 0 0 0 0 0 0 0 0 0 0 0 0 0 0 0 0 0 0 0 0 0 0 0 0 0 0 0
0 0 0 0 0 6 0 0 0 0 0 0 0 0 0 0 0 0 0 0 0 0 0 0 0 0 0 0 0 0 0 0 0 0 0 0 0 0 0 0 0 0 0 0
0 0 0 0 0 0 0 0 0 0 0 0 0 0 0 0 0 0 0 0 0 0 0 0 0 0 0 0 0 0 0 0 0 0 0 0 0 0 0 0 0 0 0 0
0 0 0 0 0 0 0 0 0 0 0 0 0 0 0 0 0 0 0 0 0 0 0 0 0 0 0 0 0 0 0 0 0 0 0 0 0 0 0 0 0 0 0 0
0 0 0 0 0 0 0 0 0 0 0 0 0 0 0 0 0 0 0 0 0 0 0 0 0 0 0 0 0 0 0 0 0 0 0 0 0 0 0 0 0 0 0 0
Height
5882 5882 5881 5880 5878 5877 5876 5874 5874 5872 5871 5870 5868 5867 5866 5866 5866 5866 5866 5867 5868 5868 5869 5869 5870 5870 5869 5868 5867 5866 5865 5863 5861 5859 5857 5855 5853 5850 5847 5844 5841 5839 5837 5835
5883 5882 5881 5879 5878 5876 5875 5874 5873 5871 5869 5868 5866 5865 5863 5862 5862 5861 5861 5862 5864 5865 5865 5866 5867 5867 5866 5865 5864 5863 5862 5860 5858 5855 5853 5850 5847 5844 5841 5838 5836 5833 5831 5828
5883 5883 5880 5879 5877 5876 5875 5874 5872 5870 5868 5867 5865 5864 5862 5861 5859 5858 5858 5859 5861 5861 5862 5863 5864 5863 5863 5862 5861 5860 5858 5856 5853 5851 5848 5845 5842 5839 5836 5833 5830 5827 5825 5823
5883 5881 5880 5878 5877 5876 5875 5873 5871 5869 5868 5867 5866 5865 5862 5859 5858 5857 5857 5858 5859 5860 5861 5861 5861 5861 5860 5859 5858 5856 5854 5852 5849 5846 5843 5840 5837 5834 5831 5827 5825 5822 5819 5817
5882 5880 5879 5877 5876 5875 5873 5872 5870 5869 5868 5867 5866 5865 5863 5859 5857 5857 5857 5858 5858 5859 5859 5859 5859 5858 5858 5856 5854 5853 5850 5848 5845 5842 5839 5836 5833 5829 5826 5823 5820 5817 5814 5811
5880 5879 5877 5876 5875 5873 5872 5871 5870 5869 5868 5868 5866 5865 5864 5860 5858 5857 5857 5858 5858 5858 5858 5857 5857 5856 5855 5853 5851 5849 5847 5845 5842 5839 5836 5832 5829 5825 5822 5819 5816 5812 5809 5806
5879 5877 5876 5874 5873 5872 5871 5872 5873 5872 5871 5868 5865 5864 5863 5860 5858 5858 5857 5857 5857 5856 5856 5855 5854 5853 5852 5850 5849 5847 5844 5841 5838 5835 5832 5828 5825 5821 5818 5814 5811 5807 5803 5800
5878 5877 5874 5873 5872 5871 5870 5871 5872 5872 5871 5868 5864 5863 5862 5859 5858 5857 5857 5856 5855 5855 5854 5853 5852 5850 5849 5847 5845 5843 5841 5838 5835 5831 5828 5824 5820 5817 5813 5809 5805 5801 5797 5794
5875 5875 5872 5870 5870 5869 5869 5869 5869 5869 5868 5867 5865 5862 5860 5858 5857 5856 5855 5855 5854 5853 5851 5850 5849 5847 5846 5844 5842 5840 5837 5834 5831 5827 5824 5820 5815 5811 5807 5803 5799 5795 5791 5787
5871 5871 5870 5868 5868 5867 5867 5867 5866 5867 5867 5867 5865 5862 5860 5858 5856 5855 5854 5853 5852 5850 5849 5848 5846 5845 5843 5841 5839 5836 5834 5830 5827 5823 5819 5814 5810 5806 5802 5797 5793 5788 5784 5780
5868 5868 5868 5866 5865 5866 5865 5865 5864 5865 5864 5864 5865 5865 5858 5857 5855 5854 5853 5851 5850 5848 5847 5845 5844 5842 5840 5838 5835 5833 5830 5826 5822 5818 5814 5809 5805 5800 5796 5791 5786 5781 5776 5772
5865 5865 5865 5864 5863 5862 5862 5862 5861 5862 5862 5860 5861 5864 5855 5854 5853 5852 5850 5849 5848 5846 5844 5843 5841 5839 5837 5834 5831 5829 5825 5821 5817 5813 5808 5804 5799 5794 5789 5784 5779 5774 5769 5764
5862 5862 5863 5863 5862 5860 5859 5858 5858 5858 5858 5858 5859 5861 5853 5851 5850 5849 5848 5846 5844 5843 5841 5839 5837 5835 5833 5830 5827 5824 5820 5816 5812 5807 5802 5797 5792 5787 5782 5777 5772 5766 5761 5755
5858 5858 5860 5861 5860 5857 5856 5855 5854 5854 5855 5855 5855 5854 5851 5848 5847 5846 5844 5843 5841 5839 5837 5835 5833 5831 5828 5825 5822 5819 5815 5810 5806 5801 5796 5791 5786 5781 5775 5770 5764 5758 5752 5746
5854 5855 5854 5854 5853 5853 5852 5852 5851 5850 5850 5850 5850 5849 5847 5845 5844 5842 5841 5839 5837 5835 5833 5831 5829 5826 5823 5820 5817 5813 5809 5805 5800 5795 5790 5785 5779 5774 5768 5762 5756 5750 5744 5737
5850 5850 5850 5850 5849 5848 5848 5848 5847 5846 5845 5845 5845 5844 5842 5841 5840 5838 5836 5834 5832 5830 5828 5826 5824 5821 5818 5815 5811 5807 5803 5799 5794 5789 5784 5778 5772 5766 5760 5754 5748 5741 5734 5727
5846 5846 5846 5846 5846 5845 5845 5845 5843 5843 5841 5841 5841 5841 5838 5837 5835 5834 5832 5830 5828 5826 5823 5821 5818 5815 5812 5809 5805 5801 5797 5792 5787 5782 5777 5771 5765 5759 5753 5746 5739 5732 5725 5718
5842 5841 5841 5842 5843 5842 5844 5840 5839 5838 5837 5836 5836 5835 5833 5832 5830 5829 5827 5825 5822 5820 5818 5815 5813 5810 5807 5803 5799 5795 5790 5786 5781 5775 5770 5764 5758 5751 5744 5737 5730 5723 5715 5708
5837 5837 5837 5838 5839 5838 5838 5836 5835 5834 5834 5832 5831 5830 5828 5827 5825 5824 5821 5819 5817 5815 5812 5810 5807 5804 5800 5796 5792 5788 5783 5779 5773 5768 5762 5756 5750 5743 5736 5729 5721 5713 5706 5698
5832 5832 5833 5833 5833 5835 5835 5831 5831 5831 5830 5828 5827 5825 5824 5822 5821 5819 5816 5813 5811 5809 5806 5803 5800 5797 5794 5790 5785 5781 5776 5771 5766 5760 5755 5748 5742 5735 5728 5720 5712 5704 5696 5688
5827 5827 5828 5828 5828 5830 5827 5826 5827 5828 5827 5823 5821 5820 5818 5817 5815 5813 5810 5807 5805 5802 5800 5797 5794 5790 5787 5783 5778 5774 5769 5764 5758 5752 5746 5740 5733 5726 5719 5711 5703 5695 5687 5679
5822 5822 5822 5822 5823 5825 5820 5821 5821 5820 5819 5817 5815 5814 5812 5810 5808 5806 5803 5801 5798 5795 5792 5789 5786 5783 5779 5775 5771 5766 5761 5756 5750 5744 5738 5731 5725 5717 5709 5702 5694 5686 5678 5670
5815 5816 5815 5816 5818 5815 5814 5813 5813 5813 5812 5810 5809 5807 5805 5803 5801 5798 5796 5794 5791 5788 5785 5782 5778 5775 5771 5767 5762 5757 5752 5747 5741 5735 5729 5722 5715 5708 5700 5692 5685 5677 5669 5662
5807 5806 5807 5808 5808 5807 5806 5806 5806 5805 5804 5803 5801 5799 5798 5796 5793 5791 5788 5786 5783 5780 5777 5774 5770 5766 5762 5758 5753 5748 5743 5738 5732 5726 5719 5712 5705 5698 5691 5683 5675 5668 5660 5653
5799 5799 5800 5800 5800 5800 5799 5798 5797 5796 5795 5794 5793 5791 5789 5787 5785 5783 5780 5778 5775 5772 5768 5765 5761 5757 5753 5748 5744 5738 5733 5728 5722 5716 5709 5702 5695 5688 5681 5674 5666 5659 5652 5645
5791 5792 5792 5792 5792 5792 5791 5790 5789 5788 5787 5785 5784 5782 5780 5778 5776 5774 5771 5768 5765 5762 5759 5755 5751 5747 5743 5738 5733 5728 5723 5717 5712 5706 5699 5692 5685 5678 5671 5664 5658 5650 5644 5637
Wind_Speed
12 11 10 9 9 8 8 7 8 9 9 10 11 12 12 13 15 18 19 19 16 15 13 12 12 11 11 11 11 12 12 13 15 16 18 20 21 22 23 23 24 24 24 24
11 10 9 9 9 8 8 7 8 9 9 9 9 10 11 11 13 15 15 15 13 12 11 10 10 9 10 9 10 11 12 14 16 18 20 21 23 24 24 24 24 24 24 24
9 9 9 9 8 8 8 8 8 9 8 7 7 8 10 10 10 10 10 9 9 9 9 8 8 9 9 10 11 12 15 17 19 21 22 23 24 25 25 25 24 24 24 24
8 9 8 8 7 8 8 8 8 8 7 7 7 8 10 9 7 6 5 6 6 6 6 6 7 8 9 10 12 14 16 19 20 22 23 23 24 24 24 24 24 23 23 23
8 8 8 8 8 8 8 8 8 7 6 7 8 8 9 8 7 4 3 2 3 3 4 6 8 9 10 12 14 16 18 20 21 22 22 22 23 23 23 23 23 23 22 22
8 8 8 8 8 8 7 7 7 7 7 7 7 7 8 8 6 3 2 2 3 4 6 7 9 11 12 14 15 17 19 20 21 21 21 21 22 22 22 22 22 22 23 23
10 10 9 9 8 7 6 5 7 7 7 8 9 7 7 7 6 4 4 4 6 7 9 10 11 12 14 15 16 18 19 20 20 20 21 21 21 21 22 22 22 23 24 25
9 10 12 10 9 8 6 4 3 4 5 8 10 9 9 8 7 6 6 7 8 10 11 12 13 13 14 16 17 18 19 19 20 20 21 21 22 22 23 23 24 25 25 26
10 11 12 10 9 8 7 6 5 5 6 6 8 10 10 10 9 8 8 9 10 12 13 14 14 15 16 17 18 18 19 19 20 21 22 23 23 24 24 25 25 26 27 28
10 10 11 10 9 8 8 8 7 4 5 5 9 9 9 10 10 10 11 11 12 13 14 14 15 16 17 17 18 19 19 20 21 22 23 24 24 25 26 26 27 28 29 30
10 10 10 10 9 10 9 9 8 7 6 4 6 9 11 11 11 11 12 12 13 13 14 15 16 16 17 18 18 19 19 21 22 23 24 25 26 27 28 28 29 29 30 31
10 10 9 11 11 11 10 10 9 8 9 8 7 11 14 13 12 12 12 13 13 14 14 15 16 17 17 18 18 19 20 22 23 25 26 27 28 29 29 30 31 31 32 33
12 10 8 9 11 12 12 12 11 11 11 11 9 11 16 14 12 12 13 14 14 14 15 15 16 17 18 18 19 20 21 23 25 26 27 28 30 31 31 32 33 34 35 36
13 12 10 10 11 13 13 13 13 13 12 12 13 13 15 15 14 13 13 14 15 15 15 16 16 17 18 19 20 21 23 25 26 28 29 30 31 32 33 34 35 37 38 38
15 14 13 13 14 13 13 13 14 14 13 13 14 14 15 16 15 15 15 15 16 16 16 16 17 18 19 20 21 23 24 26 28 29 30 31 33 34 35 36 38 39 40 41
16 14 14 14 14 14 12 12 14 14 14 14 15 15 16 16 16 16 16 16 16 16 17 17 18 19 20 21 23 24 26 27 29 30 31 33 34 36 37 39 40 41 42 42
16 15 14 13 14 15 13 13 14 14 14 14 14 16 17 17 17 17 17 17 17 17 18 18 19 20 22 23 24 26 27 29 30 32 33 34 36 38 40 41 42 43 43 44
15 15 14 13 14 15 12 15 14 13 13 14 15 16 17 18 18 18 18 18 18 18 19 20 21 22 23 24 26 27 28 30 31 33 34 36 38 40 41 43 44 44 44 44
16 16 16 15 14 14 14 16 14 13 13 16 16 18 19 19 19 19 19 19 19 19 20 21 22 23 25 26 27 28 30 31 33 34 36 37 39 41 43 44 45 45 45 44
18 17 17 17 15 13 15 18 16 15 14 18 19 20 21 20 20 20 20 20 20 21 21 22 23 24 26 27 29 30 32 33 34 35 37 38 40 43 44 45 46 46 45 44
19 20 19 19 18 17 21 18 17 16 19 21 21 22 22 22 21 21 22 22 22 23 23 24 25 26 28 29 30 32 33 34 35 36 38 40 42 44 46 47 47 46 45 43
21 21 22 22 20 21 24 21 21 22 22 23 23 24 23 23 23 23 23 24 25 26 26 27 28 29 31 32 33 34 35 36 37 37 39 42 44 46 48 48 47 46 44 43
23 24 25 25 25 26 25 25 24 24 23 24 25 25 25 25 26 26 26 26 27 28 29 30 32 33 34 35 35 36 37 38 39 40 42 43 46 47 48 48 47 46 45 42
26 26 27 26 26 27 27 26 26 25 25 25 26 26 27 27 28 29 29 29 30 30 32 33 34 35 36 37 38 38 40 41 42 44 44 45 47 48 48 48 47 46 44 41
29 28 28 28 28 28 29 28 28 28 28 28 29 29 30 30 31 31 32 32 32 33 34 35 37 39 39 40 41 42 42 43 45 46 47 47 48 48 48 48 47 45 43 41
28 28 28 30 30 30 30 30 30 30 31 31 31 32 32 33 33 33 33 34 35 36 37 38 40 41 42 43 44 45 45 46 47 48 48 49 49 49 49 48 47 45 42 40
Wind_Direction
10 9 6 358 357 353 343 334 323 317 311 298 290 285 281 271 266 262 262 264 263 261 264 271 275 280 285 294 300 304 308 311 311 309 307 306 307 307 306 305 303 300 297 295
5 2 355 354 352 352 350 340 329 326 325 313 303 297 295 286 278 271 265 259 255 258 264 271 277 285 292 301 307 312 314 314 314 312 312 311 311 310 309 308 306 303 301 298
349 343 343 347 350 344 342 339 334 331 328 328 325 320 307 299 291 277 263 251 250 260 266 273 288 297 303 309 313 316 318 317 316 315 314 313 312 311 310 309 308 306 303 300
333 335 334 336 338 335 332 326 326 330 343 345 338 331 321 315 307 294 268 246 250 269 280 292 303 309 314 316 318 319 318 318 316 315 314 314 313 312 311 311 310 309 307 305
322 324 328 322 321 321 319 322 326 325 331 337 335 341 337 335 331 311 290 263 267 280 302 310 314 317 319 319 319 319 318 317 316 315 314 314 313 312 311 311 310 310 309 308
308 313 320 317 316 316 316 321 328 332 339 329 322 337 339 342 351 357 358 342 329 327 329 324 322 320 320 320 318 316 317 316 315 315 315 315 314 313 312 311 310 310 310 309
304 304 310 311 311 310 315 337 353 347 337 309 306 316 319 331 339 340 338 330 328 330 329 324 320 318 317 316 314 314 316 316 316 316 316 316 316 315 314 314 313 312 311 310
290 293 297 300 301 296 304 318 316 313 307 307 307 305 309 318 323 323 323 324 326 325 322 319 316 315 313 312 313 314 316 316 317 317 318 317 317 316 316 315 313 312 312 311
283 279 288 288 291 283 283 287 292 313 320 326 306 303 304 313 319 320 320 319 319 318 316 314 313 312 310 310 312 313 314 316 317 318 320 320 319 318 317 315 314 313 313 312
282 282 286 287 283 278 273 277 288 298 298 311 313 311 304 305 310 310 311 313 313 312 310 308 306 306 306 307 309 311 313 316 318 319 322 323 323 322 320 318 316 315 314 313
282 282 287 286 281 278 275 275 279 280 277 284 299 296 291 299 300 300 301 304 305 304 302 301 302 303 303 305 307 311 314 317 320 322 323 324 324 323 322 321 320 319 317 316
282 280 279 281 277 277 272 272 277 278 282 283 288 293 289 293 294 296 298 300 300 299 299 299 300 301 302 305 309 312 316 319 322 324 325 325 325 325 324 323 322 320 319 317
281 278 290 296 292 283 277 274 273 275 279 282 281 285 288 293 293 295 298 300 299 298 298 298 300 302 304 307 311 315 319 322 324 325 326 326 326 326 325 325 323 321 319 317
277 275 266 258 262 273 279 280 277 278 281 278 276 274 283 290 294 296 299 300 299 299 299 300 301 304 306 310 313 317 321 324 325 326 327 327 326 326 326 325 323 321 319 317
278 278 275 272 271 272 274 274 276 277 274 270 269 274 280 285 293 297 300 300 299 300 301 302 303 305 307 311 315 319 323 325 326 327 327 327 327 326 326 325 324 322 320 318
275 274 273 274 276 277 276 276 277 277 276 273 273 277 279 285 292 297 299 299 299 302 303 303 304 306 309 313 316 320 323 325 326 326 326 326 326 326 325 324 323 322 320 318
273 270 268 270 271 278 282 279 278 279 276 273 274 277 283 288 293 297 298 299 300 302 302 303 304 307 310 314 317 320 322 324 325 326 325 325 325 326 326 325 324 323 321 320
266 263 263 266 269 274 271 273 278 279 277 276 279 284 288 292 296 298 299 299 300 300 300 302 304 307 310 313 317 319 321 323 324 324 324 324 324 325 325 325 324 323 322 321
261 258 259 263 269 275 273 273 277 281 280 281 284 287 290 294 297 297 298 297 297 298 300 302 305 307 309 313 315 317 319 321 322 323 323 324 325 326 326 325 325 324 323 322
259 257 257 259 258 260 262 268 275 279 285 281 284 286 290 293 296 297 296 296 297 299 301 303 305 307 309 312 314 316 319 320 320 321 323 324 326 327 327 327 326 325 324 323
261 258 257 259 259 261 262 270 274 277 275 279 285 287 289 291 293 294 295 296 298 300 302 304 305 307 309 310 312 315 318 319 319 320 322 325 327 327 327 327 326 325 325 324
260 260 259 259 261 261 266 271 271 271 276 283 286 288 290 293 294 295 296 298 301 302 304 305 306 307 308 309 311 314 317 318 318 320 321 323 326 327 327 327 327 326 326 325
259 256 257 259 260 264 269 271 273 275 279 282 285 287 290 293 294 295 297 299 301 303 304 305 307 308 309 310 310 313 315 316 317 318 320 322 324 326 327 327 326 326 326 325
263 259 260 263 265 268 271 274 277 278 280 282 285 287 289 291 293 295 297 299 301 302 304 305 306 307 308 309 309 310 312 314 316 317 319 321 323 324 325 325 325 326 326 325
260 263 264 266 268 271 273 276 278 279 281 284 285 287 289 291 293 295 297 298 300 301 302 303 305 305 306 307 308 309 310 312 314 316 317 319 321 322 323 324 325 325 325 325
263 264 264 266 269 271 273 275 278 279 281 283 284 286 288 290 291 293 295 296 298 299 300 300 302 304 305 306 307 306 308 310 312 314 315 316 317 320 321 323 324 324 323 323